Theta_e
311 312 314 314 312 309 310 312 311 311 310 309 310 310 311 311 310 311 312 311 310 308 308 308 308 307 307 308 306 304 303 302 301 300 300 299 298 298 297 297 297 297 297 297 297 297 297 296 296 296 296 296 296 296 296 296 296 296 296 297 297 298 297 298 299 299 299 299 300 301 301 303 304 305 306 311 315 317 317 317 317 319 322 323 323 323
313 313 314 314 310 308 310 311 310 309 309 309 310 311 311 311 311 311 311 311 309 308 308 307 307 307 307 307 305 304 302 301 300 299 299 298 298 297 297 297 297 297 297 297 297 296 296 296 295 295 296 296 295 296 296 295 296 295 296 296 296 297 297 297 298 299 300 299 299 300 300 302 302 303 304 308 312 314 316 316 316 316 319 321 322 322
313 314 313 310 308 309 309 309 309 309 310 310 311 312 311 311 311 311 311 310 308 307 307 307 307 307 307 307 305 304 302 301 300 299 298 298 297 297 297 296 296 296 296 296 296 296 295 295 295 295 295 295 295 295 295 295 295 295 295 295 295 295 296 297 297 298 299 300 299 299 299 301 302 302 303 304 307 310 313 315 315 314 315 317 320 322
312 312 310 308 309 310 310 310 310 310 310 311 312 312 311 311 311 311 310 309 307 307 308 307 307 307 307 307 305 303 302 301 299 299 299 298 297 297 297 296 296 296 296 296 295 295 295 295 295 295 294 294 294 295 295 295 295 295 295 295 295 295 295 296 296 297 298 299 300 299 298 299 301 302 301 301 303 303 305 308 312 312 313 315 317 320
310 310 308 309 310 310 311 311 311 311 310 310 312 313 312 311 310 310 309 308 306 308 308 306 306 306 308 307 305 303 302 300 299 298 298 298 297 297 297 296 296 296 295 295 295 294 295 295 295 294 294 294 294 294 294 294 294 294 295 295 295 295 295 295 296 296 296 298 299 299 299 299 299 300 300 300 301 300 300 303 308 310 311 313 315 317
310 309 308 311 311 311 312 311 312 312 309 308 312 312 310 309 309 308 308 307 307 307 307 305 304 306 308 308 306 305 303 300 298 298 297 297 297 296 296 296 296 296 295 295 294 294 294 294 294 294 294 294 294 294 294 294 294 294 294 295 295 295 295 295 295 296 296 297 298 298 299 299 299 300 300 299 300 300 300 301 305 308 309 310 312 314
308 307 309 312 312 313 313 311 312 312 308 309 310 308 307 308 308 307 307 307 307 306 306 304 304 305 306 307 307 305 303 300 298 298 297 297 296 296 295 295 295 295 295 295 295 294 294 294 294 294 293 293 294 294 294 294 294 294 294 294 295 295 295 295 295 295 295 296 296 297 297 298 299 299 300 300 299 298 299 299 301 304 306 307 308 310
308 308 310 311 311 312 311 310 312 311 309 309 308 305 306 306 306 306 306 307 307 306 305 304 305 305 305 305 307 304 301 299 298 297 297 296 296 295 295 295 295 294 294 294 294 294 293 294 294 294 293 294 293 294 294 294 294 294 294 294 294 294 294 294 295 294 295 295 295 296 296 297 298 298 299 300 300 298 297 297 298 300 304 305 306 306
309 310 311 311 310 309 309 310 310 310 309 307 305 304 304 304 305 307 307 307 306 305 304 304 305 306 306 307 307 304 302 300 298 297 297 296 295 295 295 295 294 294 294 294 294 293 293 293 293 293 293 293 293 294 294 294 294 294 294 294 293 293 294 294 295 294 295 295 295 295 296 296 298 299 299 299 300 299 296 296 297 298 300 303 305 305
308 307 307 308 309 308 308 307 307 308 308 305 304 305 306 306 307 308 307 305 304 303 304 305 305 305 306 307 307 305 303 301 298 297 296 296 295 295 294 294 294 294 294 294 293 293 293 293 293 293 293 293 294 294 294 294 294 293 293 293 293 293 293 293 294 294 294 294 294 295 295 296 297 298 299 299 299 299 298 297 297 297 298 300 303 304
306 305 305 307 308 308 306 305 306 306 305 304 305 307 307 307 307 305 304 303 303 304 305 305 305 304 304 304 305 303 301 299 297 296 296 295 295 294 294 294 294 293 293 293 293 293 293 293 293 293 293 293 293 293 293 293 293 293 293 293 293 293 292 293 293 293 293 294 294 294 295 295 296 297 300 300 299 299 299 299 298 297 297 298 300 302
307 307 308 307 306 307 306 306 307 306 305 305 306 305 305 305 305 304 304 303 303 304 306 304 303 302 301 302 301 299 298 297 296 295 295 295 294 294 294 294 293 293 293 293 293 293 293 293 293 293 293 293 293 293 293 293 293 292 292 292 292 292 292 292 292 292 292 293 294 294 295 295 295 297 299 299 299 299 299 299 297 297 298 297 298 300
309 309 308 307 305 306 308 308 308 308 306 305 305 304 304 305 304 305 305 304 304 305 304 302 300 299 299 300 299 298 296 296 295 295 295 294 294 294 294 293 293 293 293 293 292 292 292 293 293 293 293 293 293 293 292 292 292 292 292 291 291 291 291 291 291 292 292 293 294 294 294 295 295 296 298 299 299 299 299 299 298 297 298 297 297 297
311 310 307 306 306 306 308 308 308 308 305 304 304 303 303 303 303 304 304 304 305 305 302 300 298 297 299 300 300 297 296 295 295 295 295 294 293 293 293 293 293 293 293 293 292 292 292 293 293 293 293 293 292 292 292 292 291 291 291 290 290 290 290 290 291 292 292 293 293 294 294 295 295 296 297 299 299 299 299 299 298 297 297 297 296 296
311 312 309 307 306 305 307 306 305 305 303 302 303 302 302 303 302 302 302 302 303 303 301 299 298 298 300 300 299 297 295 295 295 295 294 294 294 293 293 293 293 293 292 292 292 292 292 293 293 293 293 292 292 292 291 291 291 291 289 288 288 289 288 289 289 290 290 290 291 292 293 294 295 296 297 299 299 298 298 298 298 297 296 296 296 295
309 311 309 304 303 303 304 303 302 303 303 302 302 301 301 302 301 301 301 302 301 299 299 298 298 299 300 299 297 296 295 295 295 295 294 293 293 293 293 293 292 292 292 292 292 292 292 293 293 292 292 292 292 291 291 290 290 289 287 286 287 287 286 285 285 286 287 287 287 288 289 291 294 296 296 298 299 298 298 299 298 297 296 296 296 295
309 311 307 302 301 300 300 301 301 303 304 301 300 301 300 299 300 299 299 300 300 298 299 299 299 300 300 299 297 296 296 295 295 294 293 293 293 293 292 292 292 292 292 292 292 292 292 292 292 292 292 292 292 291 290 289 289 288 286 285 285 285 284 283 283 284 285 285 286 286 286 288 293 296 296 297 299 298 298 299 299 298 297 296 296 295
308 309 306 304 303 300 298 299 300 300 301 301 300 300 298 297 297 296 295 296 297 298 300 300 299 299 298 298 298 296 296 296 295 294 293 293 293 292 292 292 292 292 292 292 292 292 292 292 292 292 292 291 291 290 289 288 287 286 285 284 284 284 283 283 283 283 284 284 285 286 286 289 292 294 295 297 298 298 298 298 298 298 297 296 296 295
305 306 307 305 303 300 298 300 300 298 299 299 299 297 296 296 296 295 295 296 297 298 299 299 298 298 298 298 298 297 296 295 294 293 293 293 292 292 292 292 291 291 291 291 292 291 291 291 292 292 291 290 290 289 288 287 286 285 284 283 283 283 282 282 282 282 282 282 283 284 286 287 289 290 292 295 297 298 298 298 298 298 297 297 296 295
303 304 305 303 301 299 298 299 300 299 298 297 297 296 296 295 295 296 296 296 297 297 298 299 298 297 298 298 297 296 295 294 293 293 293 293 292 292 292 291 291 291 291 292 292 291 291 291 291 291 290 289 288 288 287 286 285 284 283 282 282 282 281 281 281 280 280 280 280 281 282 284 285 286 288 291 295 297 297 298 298 298 297 297 297 296
303 303 304 302 298 298 299 299 301 300 298 297 296 295 296 296 295 295 295 295 295 295 296 297 297 297 297 296 296 296 294 294 293 293 293 292 292 292 291 291 291 291 291 291 291 291 291 291 291 290 289 288 287 286 286 285 284 283 282 281 280 280 280 280 280 279 279 279 279 280 280 281 283 285 287 289 292 294 296 297 298 298 298 297 297 296
302 302 303 302 299 299 300 299 298 299 299 298 296 296 296 296 295 296 296 295 295 294 295 295 295 296 296 296 295 295 294 294 293 293 293 292 292 292 292 291 291 291 291 291 290 290 291 291 290 289 288 287 287 286 285 284 282 281 281 280 279 279 278 278 278 278 278 278 279 279 279 280 282 284 286 286 288 290 294 297 297 297 298 298 297 296
301 300 301 302 301 299 298 296 295 296 297 296 296 296 295 295 295 295 296 296 295 295 295 294 294 296 296 296 296 295 295 294 293 293 292 292 292 292 291 291 291 291 291 291 290 290 291 290 290 288 288 287 286 285 284 283 282 281 281 280 279 278 277 277 277 277 277 277 278 278 279 279 281 282 283 284 285 287 291 294 296 297 297 298 298 297
300 299 299 301 300 297 294 294 295 296 295 295 295 295 295 296 295 295 295 295 295 295 295 294 295 296 296 296 295 295 295 294 293 293 292 292 292 291 291 291 291 291 291 291 290 290 290 290 288 288 287 286 285 284 283 282 282 281 280 279 277 277 276 276 276 276 276 276 277 277 278 278 279 280 281 282 283 285 287 289 292 295 297 297 297 297
301 300 298 299 300 298 296 294 294 295 294 294 294 295 297 296 296 295 294 294 294 294 294 294 294 295 295 296 296 295 295 294 293 292 292 292 291 291 291 291 291 291 290 290 290 290 289 288 287 287 286 285 284 283 282 282 281 280 279 277 277 276 275 275 275 275 275 276 276 277 277 278 279 280 280 281 281 282 283 284 286 288 293 296 297 296
300 299 298 299 301 302 301 298 296 296 294 294 294 295 296 296 295 295 294 295 295 295 294 294 294 295 296 296 295 295 295 294 293 292 292 292 291 291 291 290 290 290 290 289 290 289 288 287 286 286 285 285 283 282 282 281 280 279 278 277 276 276 275 275 274 274 274 275 276 276 277 278 278 279 279 280 280 281 281 282 282 283 287 292 296 296
297 297 297 299 300 302 301 298 296 295 294 294 294 294 295 296 296 295 294 294 294 294 294 295 295 295 296 295 295 295 294 293 293 292 292 291 291 291 290 290 290 290 289 289 289 289 287 286 285 285 284 283 282 282 282 281 280 278 277 276 276 275 275 275 274 274 274 274 275 275 276 277 278 278 279 279 280 280 281 281 282 282 284 288 293 296
295 296 296 297 298 298 297 296 295 294 293 293 294 294 294 295 296 297 295 294 294 293 294 294 294 295 295 295 295 295 293 293 292 291 291 291 291 290 290 290 290 289 289 289 288 288 286 285 285 284 283 283 283 284 283 282 281 278 276 276 275 274 274 274 274 273 273 274 274 275 275 276 277 278 278 279 279 280 280 280 281 282 282 285 289 293
295 296 297 297 297 296 296 295 295 295 293 293 293 293 293 294 295 297 296 294 294 294 294 293 293 294 294 294 294 294 293 292 292 291 291 291 290 290 290 290 289 289 289 288 287 286 286 285 284 283 283 283 283 282 281 281 280 277 276 275 275 274 273 273 273 273 273 273 274 274 275 275 276 276 277 278 279 279 280 280 280 281 281 283 286 289
295 296 296 295 295 295 295 295 295 294 294 294 294 294 294 293 294 295 295 294 294 294 293 292 292 293 293 294 294 293 293 292 291 291 291 291 290 290 290 289 289 289 288 287 286 285 285 284 283 283 283 282 281 279 279 280 279 277 275 275 274 274 273 273 273 273 273 273 273 273 274 274 275 275 276 277 278 279 279 280 280 280 281 282 284 286
295 296 296 295 295 296 295 295 295 294 294 294 294 295 294 293 293 293 294 294 294 294 293 292 293 293 293 294 294 293 292 292 291 291 291 290 290 290 289 289 288 288 288 287 285 284 284 283 283 282 282 281 279 279 278 279 278 277 275 274 274 273 273 273 273 273 273 273 273 273 273 273 274 274 275 276 277 278 279 279 280 280 280 281 282 284
295 295 295 296 297 297 296 296 296 295 294 294 294 294 294 293 294 293 293 294 294 294 294 294 294 294 294 294 293 292 292 291 291 291 290 290 290 289 289 288 288 288 286 285 285 284 283 282 282 281 281 280 279 278 277 277 276 275 274 274 273 273 273 273 273 272 272 272 273 273 273 273 273 274 275 276 277 278 279 279 280 280 280 281 282 283
295 295 295 296 296 296 295 294 294 293 293 294 294 294 294 294 293 293 293 293 294 294 294 294 294 293 293 292 292 291 292 291 291 291 290 290 290 289 288 288 287 286 285 284 284 283 282 282 281 280 280 279 278 277 277 277 276 275 274 273 273 273 273 272 272 272 272 272 272 272 273 273 273 273 274 275 276 278 279 279 280 280 280 280 281 283
296 295 295 295 296 295 294 292 292 293 295 296 295 294 294 294 293 293 293 293 293 293 294 293 293 292 292 292 291 291 291 291 291 290 290 290 289 288 288 288 286 285 284 283 283 282 281 281 280 280 278 278 277 276 276 276 275 274 273 273 273 272 272 272 272 272 272 272 272 272 272 272 273 273 274 274 276 278 279 279 280 280 280 280 281 282
296 296 295 295 295 295 293 292 293 296 295 294 293 294 294 293 293 292 292 293 293 293 293 292 292 292 292 291 291 291 291 291 290 290 289 289 289 288 287 286 285 284 283 282 281 281 280 280 279 278 277 277 276 275 275 275 275 273 272 272 272 272 272 271 271 271 271 271 271 271 272 272 272 273 273 273 274 276 279 280 280 280 280 280 281 283
296 296 295 295 295 294 294 294 295 296 294 291 291 292 292 292 291 291 291 292 292 291 292 291 291 291 291 291 291 291 291 290 289 289 289 289 288 287 286 285 284 283 282 281 280 280 279 279 278 277 276 276 275 274 274 274 273 272 272 271 271 271 271 271 271 270 270 270 270 271 271 271 271 272 272 272 273 274 277 279 280 280 280 280 281 284
295 296 295 294 295 294 293 294 295 296 295 294 293 292 292 291 291 292 292 292 291 291 291 291 291 291 291 291 291 291 290 289 289 289 290 289 287 286 285 284 283 282 281 280 280 279 278 277 276 276 275 274 274 273 273 272 272 271 271 271 271 271 270 270 270 270 270 269 270 270 270 270 270 271 271 271 272 272 275 278 280 280 280 281 282 285
295 295 295 294 294 294 293 294 295 295 296 296 294 293 293 292 292 292 291 292 292 291 291 291 291 291 290 290 291 290 289 289 289 290 290 288 286 285 284 283 282 281 280 279 278 278 277 276 275 274 274 273 272 272 272 271 271 270 270 270 270 270 270 269 269 269 269 269 269 269 269 269 270 270 270 271 271 272 273 276 279 279 280 281 283 286
294 294 294 294 294 295 294 294 295 295 296 295 293 293 292 292 291 291 290 291 292 292 292 291 291 290 290 290 290 289 289 289 289 290 289 287 285 284 283 282 281 280 279 278 277 276 275 274 274 273 272 272 271 271 270 270 270 269 269 269 269 269 269 268 268 268 268 268 268 268 268 269 269 269 270 270 271 271 272 275 278 280 281 282 284 286
293 293 293 293 293 294 294 294 295 295 295 293 291 291 291 291 291 290 291 292 292 291 291 291 290 290 290 290 290 289 289 289 289 289 288 286 284 283 282 281 280 279 277 277 276 275 274 273 272 271 271 270 270 270 269 269 269 269 269 269 269 269 269 268 267 267 267 267 267 268 268 268 268 269 269 270 270 271 272 274 278 280 281 282 283 286
292 292 293 292 292 293 294 294 294 294 294 293 291 290 290 291 290 290 291 292 291 291 291 291 290 291 290 290 289 289 289 289 289 287 286 284 283 282 281 280 278 277 276 276 275 274 273 272 271 270 270 269 269 269 268 268 268 268 268 268 268 268 268 267 266 266 266 267 267 267 267 268 268 269 269 270 270 271 272 274 278 281 282 282 284 288
292 292 292 292 292 292 293 294 294 294 294 293 291 290 290 290 291 291 292 291 291 291 291 291 291 290 290 289 289 288 288 288 287 285 284 283 281 280 279 278 277 276 275 274 274 272 271 270 269 269 269 268 268 268 268 267 267 268 268 268 268 267 267 266 265 265 266 266 266 267 267 267 268 269 269 270 271 272 273 276 280 283 283 284 287 290
292 292 291 292 293 292 292 293 293 293 294 293 291 290 290 290 291 292 292 292 292 291 291 291 291 290 289 288 288 287 287 286 285 283 282 281 280 279 278 277 276 275 274 273 272 271 270 269 268 268 267 267 267 267 267 267 267 267 267 267 267 266 265 265 265 265 265 265 266 266 267 268 269 269 270 271 272 274 276 280 283 284 285 286 288 290
293 292 292 292 293 292 292 294 293 293 293 293 291 291 291 291 292 293 293 292 292 291 290 290 290 289 288 287 286 285 285 284 283 282 281 280 278 277 276 275 274 273 273 272 271 270 268 268 267 267 266 267 267 267 267 266 266 267 266 266 265 265 264 264 264 264 264 265 265 266 267 269 270 271 272 273 274 276 280 283 285 286 286 287 288 289
294 293 293 293 293 293 293 294 293 292 292 293 292 292 292 292 292 293 292 291 291 291 290 290 289 288 286 284 284 283 282 282 281 281 279 278 276 275 274 274 273 272 271 270 269 268 267 267 266 266 266 266 266 266 266 266 266 266 265 265 264 264 264 263 263 263 264 265 266 267 268 270 271 273 275 276 277 279 283 286 287 287 288 288 289 290
293 293 293 293 293 294 294 293 293 292 292 292 292 292 292 292 293 293 291 291 291 290 289 288 288 286 283 281 281 281 281 281 280 279 277 276 274 274 273 272 272 271 270 269 268 267 266 266 265 265 265 265 265 265 266 265 265 265 264 264 263 263 263 263 263 263 264 265 266 268 269 271 273 275 277 279 280 282 285 287 288 288 289 290 290 291
293 292 293 293 294 294 294 294 293 292 292 292 292 292 292 291 291 290 290 290 290 288 287 286 284 283 281 279 279 279 279 279 278 276 275 274 273 272 272 271 270 269 268 267 267 266 265 265 265 264 264 265 265 265 265 265 264 264 263 263 262 262 262 262 263 263 264 265 267 269 270 271 273 274 276 279 282 284 286 288 288 289 290 290 291 291
294 293 292 293 293 294 294 294 293 293 292 292 292 292 292 290 289 289 289 289 287 285 283 282 281 280 279 278 278 278 277 276 275 274 273 272 271 271 271 270 269 268 267 266 266 265 265 264 264 264 264 264 264 264 264 264 263 262 262 262 262 261 261 262 262 263 264 265 267 269 270 271 272 273 274 276 279 283 286 288 289 290 290 291 291 292
294 294 293 292 293 293 293 293 293 293 292 292 292 291 291 291 290 288 287 285 284 283 281 279 279 279 278 278 277 276 275 274 273 272 271 270 270 270 269 268 267 266 266 266 265 264 264 263 263 263 263 264 264 264 263 263 262 261 261 261 261 260 261 261 262 263 264 266 268 269 269 270 271 272 273 274 276 279 282 285 288 290 291 291 292 292
293 293 293 293 292 293 293 293 293 293 293 292 292 292 292 292 290 288 286 284 283 282 280 279 278 277 276 275 275 273 272 272 271 270 270 269 269 269 268 267 266 265 265 265 264 264 263 263 263 263 263 263 263 263 262 262 261 261 260 260 260 260 260 261 262 263 265 266 267 268 269 269 270 270 271 272 274 276 278 281 285 289 290 291 292 292
293 293 293 293 293 293 293 293 293 293 293 293 293 293 292 291 290 288 287 285 283 282 280 279 278 277 275 273 272 271 270 270 270 270 269 268 268 267 266 265 265 265 265 264 264 263 262 262 262 262 262 262 262 262 261 260 260 260 260 259 259 259 260 261 262 263 265 266 267 268 268 268 269 269 270 271 272 274 276 279 283 286 288 291 292 292
Wind_Speed
2 5 4 2 4 5 5 3 3 5 5 6 7 7 8 9 7 5 4 5 4 5 6 8 10 12 13 3 13 10 10 10 9 9 6 5 5 6 7 8 8 8 8 11 15 17 18 20 22 22 22 24 25 25 27 27 26 27 28 28 28 28 29 29 27 26 25 26 25 25 25 24 24 27 30 31 31 32 30 31 33 33 36 39 37 36
1 6 2 2 4 5 4 3 3 5 6 7 7 7 7 7 7 6 3 4 2 4 6 10 11 14 12 6 14 9 10 9 8 8 7 6 6 6 6 7 7 8 8 11 15 17 20 23 25 25 23 26 27 27 28 27 28 29 29 28 28 28 29 30 29 26 25 25 25 26 26 26 24 25 26 28 31 34 33 31 31 31 32 37 39 38
5 5 2 4 3 2 3 3 4 6 7 7 6 6 6 5 6 4 3 4 3 6 8 10 10 14 7 10 12 9 10 8 8 8 7 6 6 5 6 7 8 10 11 12 14 18 23 25 26 25 25 27 28 28 29 28 29 29 29 30 30 31 29 29 30 28 26 26 26 26 27 26 25 23 24 27 30 32 32 30 29 29 30 33 38 39
7 3 3 2 0 2 5 3 5 7 7 6 5 6 6 5 6 3 2 4 9 7 6 9 10 10 2 11 9 8 10 9 9 8 7 5 5 5 5 7 9 12 12 12 14 17 22 24 25 25 26 28 28 28 29 29 30 29 30 32 32 33 31 30 31 32 30 28 27 28 28 26 25 24 24 26 28 31 35 34 31 30 29 33 34 36
10 4 4 1 2 3 6 6 6 6 6 7 6 5 6 5 5 6 7 11 11 3 3 7 10 7 6 12 8 8 9 9 8 7 6 5 4 4 5 8 10 11 11 13 15 18 21 24 26 27 28 29 29 29 30 31 31 31 32 33 33 34 34 33 32 34 34 31 28 29 29 26 24 24 24 24 26 30 34 34 33 31 30 32 33 33
8 3 3 1 3 3 5 7 5 2 6 7 2 2 5 6 6 9 11 11 9 3 4 8 9 4 7 12 11 9 9 9 7 5 5 4 4 5 7 8 9 10 11 12 15 19 22 25 28 29 30 31 31 31 32 33 34 34 35 35 35 34 35 35 34 34 35 33 30 29 29 28 25 23 20 20 22 27 30 30 32 31 29 31 32 34
3 2 1 2 3 4 6 8 3 1 6 6 2 4 4 5 7 9 11 9 6 7 6 6 7 6 4 8 12 13 11 11 8 5 5 3 4 5 7 8 9 12 12 12 15 19 22 25 27 28 31 32 32 33 34 34 35 36 37 37 37 38 38 37 35 36 35 34 33 31 31 30 28 25 20 18 22 27 30 29 30 30 28 29 31 34
1 0 1 2 3 5 7 6 1 2 5 3 4 5 6 6 9 9 9 8 6 10 10 7 9 8 8 7 11 16 13 11 8 4 5 4 5 7 9 10 12 14 13 13 15 19 22 25 27 27 30 31 31 33 32 34 35 33 35 38 40 44 46 42 36 35 36 35 34 34 33 31 30 29 24 20 22 27 30 29 28 29 28 28 29 32
3 2 1 2 3 5 4 2 3 1 4 3 6 5 6 6 8 9 8 8 8 10 9 6 6 7 8 5 10 14 12 10 6 2 3 5 7 9 11 12 13 14 14 14 15 19 22 26 28 29 30 31 31 31 30 34 37 36 39 43 43 45 47 47 41 35 35 37 36 35 34 32 31 31 28 23 21 23 27 30 28 27 28 27 29 31
2 3 2 2 3 4 3 4 4 1 2 4 6 6 7 7 8 8 7 8 9 8 9 9 8 7 7 4 8 10 10 8 3 2 3 6 9 10 11 12 15 15 13 14 16 19 24 28 29 30 31 32 32 31 32 35 39 41 42 44 44 43 42 45 45 39 37 37 37 36 34 34 33 32 30 25 21 20 22 26 27 26 28 27 28 31
1 2 0 2 3 3 2 3 2 1 3 6 6 7 7 7 8 8 7 7 7 7 9 9 9 8 6 4 5 4 4 4 1 3 3 7 9 10 11 12 15 15 13 14 16 20 26 30 30 30 31 33 34 35 36 37 39 42 42 42 44 45 42 43 44 43 41 39 37 36 35 36 35 32 31 27 23 20 18 21 25 24 25 26 26 30
3 3 3 1 1 2 1 2 2 2 4 5 5 6 7 6 6 6 5 3 5 7 4 2 4 5 7 3 2 3 5 5 1 3 4 7 9 11 12 13 15 14 14 15 15 17 23 26 27 29 31 34 36 38 39 39 39 40 41 42 44 45 44 42 41 42 42 41 38 37 36 36 36 33 31 28 24 21 18 19 24 24 21 24 24 27
4 4 3 3 1 3 3 3 3 4 5 5 5 4 5 6 6 5 4 3 6 6 2 7 4 3 9 8 4 7 7 4 3 3 4 7 10 12 13 15 14 13 14 15 15 16 18 19 24 28 31 35 37 38 39 40 41 40 38 41 44 45 45 44 42 41 42 41 39 37 37 36 37 34 31 27 23 21 18 17 21 23 20 20 22 24
3 2 5 4 2 4 5 4 3 3 3 4 3 2 3 5 6 6 5 5 7 3 3 4 5 4 8 9 6 9 7 4 4 4 5 8 11 12 14 15 14 15 15 15 16 17 16 18 25 28 31 35 37 38 39 40 43 42 37 41 44 45 47 45 42 41 40 39 38 37 37 36 36 35 30 27 24 22 19 16 19 22 21 18 19 22
6 3 4 5 2 4 6 4 3 2 0 1 1 1 4 4 5 6 5 6 7 6 4 2 3 4 6 2 8 10 7 5 3 3 6 9 10 11 12 14 15 15 15 15 16 18 18 23 27 29 31 34 36 37 39 41 43 38 36 44 47 43 45 45 43 43 40 39 40 38 37 37 37 35 30 27 25 22 20 17 18 22 22 20 18 21
7 6 3 2 0 2 5 2 1 2 2 1 2 1 3 3 5 6 7 7 6 9 8 3 3 5 2 5 11 9 6 5 3 3 6 10 11 12 12 13 14 15 15 16 17 18 21 27 30 31 33 35 36 38 39 42 42 35 34 43 45 39 41 45 47 46 43 43 44 41 41 44 41 37 32 28 25 23 22 19 18 23 24 21 19 20
5 4 5 3 1 2 1 0 1 3 1 2 2 2 1 3 2 5 8 5 1 7 6 4 5 6 3 5 9 9 5 2 2 5 8 11 12 13 12 12 14 15 16 16 17 18 21 27 31 32 33 37 39 41 42 43 41 36 36 39 42 41 40 42 43 41 41 42 43 41 42 45 42 37 33 29 27 27 26 21 19 23 26 23 21 19
3 4 5 6 3 2 2 1 3 3 2 1 2 1 3 3 1 2 4 3 3 8 6 5 7 8 6 4 7 9 4 4 6 8 11 12 13 13 12 13 15 16 17 17 18 19 21 27 31 31 33 39 42 42 42 40 36 36 38 40 43 44 42 41 40 38 38 39 42 42 39 38 38 36 34 31 28 29 29 24 20 22 26 25 24 19
1 4 3 3 1 3 2 2 4 3 1 0 1 1 1 1 2 3 3 3 5 8 7 6 7 7 8 4 5 7 4 7 8 10 11 12 13 13 13 15 18 18 18 17 17 18 20 26 30 31 34 40 42 40 39 39 38 38 40 42 43 43 43 42 40 38 37 36 38 41 38 35 36 37 36 35 32 30 31 27 23 25 29 28 25 20
0 3 2 2 2 3 3 4 6 5 4 2 0 1 1 1 3 4 2 1 5 7 7 7 5 4 6 2 2 4 5 6 8 10 10 12 13 13 14 16 17 18 17 17 17 19 21 25 31 34 36 39 39 38 38 38 39 39 39 41 41 41 41 41 38 37 38 36 36 38 39 38 39 39 38 38 36 33 33 32 27 27 29 29 26 22
2 4 3 1 1 2 3 4 5 4 5 5 5 5 3 2 2 4 3 2 3 6 6 7 9 5 3 3 1 4 4 5 8 11 10 12 13 14 16 17 17 18 18 18 19 20 21 25 32 37 36 36 37 37 38 37 36 39 40 39 39 40 39 38 36 35 37 37 36 35 36 36 38 37 35 36 38 36 34 33 30 28 28 29 29 25
2 3 4 2 3 5 3 1 1 3 1 4 6 6 6 5 4 4 5 3 2 5 6 6 11 8 3 1 4 4 3 5 8 11 11 12 14 15 16 18 19 18 18 20 22 20 20 25 31 35 35 36 36 36 37 35 32 34 38 38 38 39 37 36 36 36 36 37 36 35 35 35 34 33 31 33 37 38 34 31 31 31 29 29 31 28
0 0 3 6 5 4 1 2 2 3 3 4 5 5 5 6 6 5 6 3 2 6 7 5 11 8 2 2 4 2 2 6 9 10 12 12 14 15 17 19 20 19 19 20 20 18 20 26 30 31 32 34 36 35 35 36 33 33 39 41 39 39 37 36 36 35 36 36 36 35 35 34 33 31 30 31 33 35 35 33 32 32 31 28 27 25
1 1 3 6 4 2 3 1 0 1 2 4 5 6 6 6 6 6 5 2 2 7 6 5 11 7 3 4 4 4 4 8 9 10 12 12 12 15 18 20 19 20 20 20 19 19 22 27 28 28 29 31 34 34 34 36 38 39 41 40 38 38 38 36 34 34 35 36 37 36 34 34 33 31 30 29 30 32 34 36 35 31 30 29 26 23
2 3 3 3 5 3 3 3 3 4 5 5 6 7 7 6 5 2 2 1 4 7 8 8 12 8 0 4 7 7 8 11 11 11 12 12 13 15 17 19 19 19 20 20 20 22 22 23 23 24 28 30 31 34 36 38 40 41 40 39 38 39 39 36 34 33 34 35 36 36 35 34 32 31 30 29 28 30 33 38 41 38 33 31 27 23
3 4 4 5 6 7 5 3 3 4 5 4 6 9 9 9 9 4 1 5 7 7 10 11 11 10 6 5 9 11 12 13 13 12 11 12 14 15 16 17 17 18 19 20 22 22 20 19 21 24 28 29 29 32 37 41 42 42 41 40 38 38 38 38 36 34 33 34 35 36 36 35 32 31 31 30 29 28 30 34 40 42 38 35 30 24
1 3 6 9 9 9 6 2 1 4 5 5 7 11 12 11 11 7 4 7 8 7 11 13 12 15 14 12 14 14 13 13 12 11 12 13 14 16 17 17 17 17 17 19 21 20 19 19 21 24 29 31 31 32 37 42 43 41 41 41 39 37 36 37 37 35 34 34 34 36 36 35 34 32 31 31 30 29 29 29 33 37 36 36 33 25
2 4 8 12 13 11 9 4 3 6 7 8 9 12 14 13 11 10 10 9 6 7 12 12 12 16 16 14 15 14 13 13 11 11 13 14 15 17 18 18 19 19 18 20 21 20 20 21 21 22 26 31 35 38 41 45 45 41 40 40 40 38 36 35 36 36 35 34 34 35 35 34 34 33 32 32 31 31 31 30 31 33 33 34 33 27
3 5 7 9 12 13 11 8 6 6 8 10 11 13 15 15 14 15 17 14 10 11 14 12 13 17 15 14 15 14 13 12 10 11 13 14 16 19 19 20 20 19 19 21 22 20 20 21 21 21 25 31 36 37 39 42 42 41 40 41 40 39 37 35 35 36 36 35 34 34 35 35 34 34 34 34 34 33 33 32 31 32 32 32 33 29
2 3 4 7 11 12 11 10 8 8 11 12 14 16 16 16 17 17 19 19 18 20 19 18 20 21 16 16 17 14 10 8 8 11 13 15 18 19 20 20 19 19 20 21 21 20 20 21 22 23 26 31 32 32 35 40 42 42 42 42 40 38 37 36 36 36 36 36 36 35 36 36 36 36 35 34 35 34 35 34 32 32 32 31 32 32
2 1 2 2 7 9 8 9 10 11 13 16 18 18 16 16 19 19 19 18 19 21 22 21 22 19 15 15 15 11 8 7 9 12 13 15 17 19 19 19 19 19 20 21 20 20 20 21 23 23 25 29 32 33 36 40 43 43 41 39 39 38 37 36 37 38 37 37 37 36 36 37 37 37 36 35 35 35 35 35 32 32 32 30 31 33
4 2 2 1 5 6 4 7 10 10 13 20 22 18 17 18 18 17 16 16 17 19 20 19 16 13 11 11 10 9 8 9 10 12 13 13 16 19 19 18 18 19 20 21 20 20 21 22 23 23 25 29 33 35 37 40 43 43 41 40 40 40 39 37 38 39 38 37 38 37 36 36 36 37 36 35 35 35 35 34 33 32 32 29 29 32
4 3 2 2 3 4 1 2 3 6 10 15 14 15 20 21 20 17 15 15 18 17 14 13 11 10 10 9 10 10 10 9 10 10 11 13 15 17 17 16 17 19 19 20 20 20 20 21 23 25 28 30 32 35 39 43 43 42 41 41 41 40 40 39 38 38 38 37 37 36 36 35 35 36 36 34 35 35 34 34 33 32 32 30 29 30
5 5 3 4 2 1 3 4 2 7 10 7 3 13 21 22 21 19 16 16 17 15 13 12 11 12 12 11 11 11 10 9 9 9 11 12 13 13 15 16 17 18 19 19 19 19 19 21 26 30 31 31 32 35 40 43 43 43 42 40 41 41 40 39 37 37 37 37 36 36 36 35 35 35 34 34 35 36 34 33 32 32 30 29 29 30
7 6 4 4 3 1 3 3 3 8 7 3 3 7 14 14 14 15 14 14 15 14 16 15 14 15 13 11 10 10 10 10 9 10 14 14 11 10 12 15 17 17 18 19 19 19 20 24 29 31 32 33 34 35 39 42 45 45 42 39 40 40 40 39 37 36 36 36 36 35 35 35 34 35 34 34 34 34 34 32 31 30 29 28 29 29
7 6 4 3 3 1 2 5 6 5 4 3 3 3 4 5 8 9 10 12 14 15 15 14 15 15 12 10 9 9 10 11 9 11 13 10 6 8 11 14 15 16 17 19 19 21 24 28 30 31 32 33 34 35 37 40 43 44 43 41 39 38 38 38 37 36 35 35 35 35 34 34 34 34 35 34 32 33 34 31 29 29 29 28 29 29
8 6 4 3 4 3 4 8 7 9 12 10 8 8 8 8 8 6 8 8 9 11 13 12 14 13 8 8 8 8 10 10 8 8 7 4 6 9 11 13 14 15 17 21 23 24 26 29 30 31 33 34 34 34 36 39 42 43 42 40 37 37 36 35 34 35 35 34 34 35 34 34 34 34 35 34 32 31 33 32 29 28 27 27 29 29
7 7 5 4 4 3 4 6 7 10 12 8 6 8 9 7 4 1 5 6 6 11 13 11 11 9 6 7 8 7 8 8 7 6 4 7 9 11 12 12 14 16 19 22 25 26 28 30 31 32 33 34 34 35 36 40 42 42 40 37 36 37 36 34 33 34 35 35 36 36 36 35 34 34 34 33 33 32 32 31 29 27 27 27 28 28
5 6 5 5 6 5 5 6 8 8 6 2 3 6 8 8 8 5 4 7 7 11 12 9 8 7 6 7 6 4 5 7 8 6 7 10 11 11 11 13 15 19 22 23 24 25 28 31 32 33 33 33 33 35 38 40 41 39 37 37 36 35 35 35 34 34 36 37 38 38 37 35 34 34 34 33 33 33 32 31 29 27 26 26 27 27
6 5 6 8 9 9 8 8 7 7 5 1 5 9 10 9 9 4 5 5 4 9 10 9 8 7 6 5 4 4 4 6 8 9 10 12 13 12 12 14 16 19 23 26 26 27 29 30 31 32 33 34 35 37 39 40 39 37 36 36 35 34 35 37 38 37 38 39 39 38 37 36 35 36 35 35 34 33 32 31 29 26 24 25 27 29
6 6 7 9 10 11 11 9 8 7 5 5 7 10 11 8 5 5 7 2 7 9 9 9 8 7 6 6 5 4 6 7 9 11 12 13 14 14 15 17 19 20 22 24 25 26 28 29 29 31 33 34 35 37 38 39 38 36 36 36 34 34 37 39 40 40 39 39 39 39 39 38 37 36 36 35 34 32 32 31 29 25 23 25 28 28
7 6 8 9 9 9 10 9 9 8 6 10 11 11 12 7 4 7 3 4 8 9 8 8 9 6 6 7 5 5 7 8 10 11 12 12 13 13 15 19 21 21 22 23 22 22 25 27 28 30 34 35 35 34 35 37 36 35 36 35 34 37 40 41 41 40 40 40 40 39 40 41 39 36 34 33 31 29 30 30 27 24 23 25 25 21
8 7 7 9 8 7 8 9 8 6 6 13 13 9 8 7 7 4 3 5 7 7 7 7 7 6 6 6 5 6 8 9 10 10 10 11 11 12 14 17 18 21 23 24 23 23 25 27 28 30 34 36 35 33 33 34 34 34 34 35 37 40 41 41 42 41 40 40 40 39 40 42 41 38 33 30 28 28 29 27 23 21 22 23 22 17
8 8 5 7 8 6 8 10 6 1 5 13 12 7 9 12 7 3 4 5 5 5 5 4 4 5 5 4 4 6 8 8 9 9 9 9 10 10 13 15 17 20 22 22 23 24 25 26 28 32 35 36 34 33 33 33 32 33 34 36 39 41 41 41 42 42 40 38 36 38 43 45 44 39 34 29 27 26 26 23 20 20 21 21 19 16
8 8 3 4 7 7 6 6 2 2 5 10 9 6 8 11 7 4 4 4 3 4 4 3 3 5 5 3 3 5 7 7 8 8 8 8 9 10 11 14 16 19 21 22 23 24 24 26 29 33 36 37 36 33 32 31 31 34 36 38 41 41 40 42 43 42 40 37 35 39 45 45 41 36 32 29 24 22 20 19 18 19 19 18 17 14
5 5 1 1 5 8 9 7 3 3 5 9 8 4 3 5 4 5 5 4 3 4 4 3 4 5 5 4 3 4 6 6 7 7 7 7 9 10 11 14 16 18 20 21 22 24 25 26 28 29 33 37 38 34 31 31 31 32 36 40 42 41 41 42 41 40 39 37 37 38 38 35 33 32 31 27 22 19 19 18 17 16 16 16 15 12
5 6 4 5 6 6 7 6 8 9 9 8 8 6 3 3 2 3 4 4 3 5 5 4 4 5 5 5 4 6 7 6 6 7 6 6 8 9 10 12 16 17 19 20 23 26 26 26 27 28 31 35 37 35 32 32 31 32 36 39 41 42 43 40 37 37 37 37 35 33 30 30 31 31 29 27 23 20 19 19 18 16 15 15 14 11
7 8 6 8 10 9 6 4 5 7 8 8 8 6 5 5 5 5 4 3 5 6 5 5 6 5 5 5 5 6 6 5 5 6 6 6 7 8 9 12 16 18 19 20 21 24 25 25 26 28 30 33 35 35 33 32 33 35 36 37 40 43 42 38 36 36 36 33 31 29 29 30 31 30 29 28 26 23 20 19 18 17 16 17 16 11
7 8 7 6 9 10 8 9 8 6 4 7 9 10 7 6 7 7 6 6 6 6 6 6 5 5 5 5 4 4 5 5 4 5 6 6 6 7 10 13 17 19 20 20 21 22 24 25 27 29 31 32 34 34 33 33 35 36 35 36 41 43 40 39 38 35 32 30 28 28 29 30 30 30 29 28 27 26 24 23 22 20 21 22 22 19
7 8 7 6 7 8 7 11 11 6 5 7 10 11 9 6 8 8 7 7 7 8 8 7 6 6 5 4 4 3 4 5 4 4 5 5 6 8 12 14 17 18 20 21 22 22 22 25 27 28 30 32 33 33 32 33 36 36 35 38 42 41 39 39 36 31 29 29 27 28 30 29 29 30 29 27 26 26 26 27 26 23 22 24 26 25
7 9 9 8 8 8 9 11 9 6 6 6 5 6 6 6 7 8 8 8 8 8 8 8 7 6 5 4 4 4 5 5 4 4 5 6 7 9 12 14 16 18 20 21 21 22 23 25 26 27 29 31 32 33 33 34 35 35 36 40 42 41 41 39 33 28 28 28 27 29 31 29 28 29 28 27 26 24 23 24 26 26 23 21 23 24
Wind_Direction
352 293 281 302 336 342 327 306 294 295 283 276 277 271 270 278 275 279 284 123 87 313 276 294 298 297 304 172 143 138 129 119 113 112 96 85 61 37 24 12 3 357 356 347 347 351 349 348 347 344 343 340 338 338 336 333 331 331 328 326 325 325 326 325 323 322 323 324 323 322 320 317 316 319 317 310 304 301 299 299 295 282 263 249 244 241
259 285 299 48 350 330 310 289 292 287 280 279 276 280 282 282 293 309 294 140 76 323 290 300 302 300 301 159 147 145 135 123 115 109 93 76 52 34 18 5 359 360 356 348 349 351 351 351 348 344 341 338 336 336 334 332 331 329 326 324 321 321 320 320 318 314 313 317 319 317 314 312 311 313 317 313 309 308 303 301 303 300 283 262 249 241
291 285 74 57 359 304 263 258 282 282 280 281 277 281 283 303 328 316 158 127 331 306 298 307 305 300 289 151 151 150 132 116 109 101 87 71 44 28 15 5 2 2 356 349 349 350 351 348 344 342 338 336 334 332 330 329 329 328 326 325 321 319 315 314 314 310 306 307 310 312 308 308 307 307 314 316 314 316 315 310 309 310 304 288 266 248
295 310 70 53 61 246 257 250 274 281 276 273 277 280 285 325 345 293 171 342 314 297 311 314 296 292 226 146 149 142 130 119 120 113 102 86 46 32 18 12 7 1 352 347 348 349 347 343 340 339 335 335 332 329 329 328 328 327 325 324 321 319 315 311 310 309 307 302 303 307 306 304 304 305 312 320 322 323 324 320 315 312 311 306 287 260
276 314 50 118 181 259 280 276 277 284 285 286 284 279 294 328 328 296 305 318 305 280 32 340 301 282 165 163 163 144 143 138 134 126 114 99 54 40 21 16 8 359 351 348 351 347 342 339 335 334 333 333 330 329 330 328 327 324 322 321 319 318 315 311 309 308 308 304 301 304 305 305 306 309 315 324 326 325 325 322 318 317 314 312 303 280
276 330 49 220 233 265 286 286 289 311 294 294 321 30 343 333 314 305 313 322 310 277 55 12 318 285 167 180 174 154 163 155 148 142 118 89 54 37 16 13 2 354 353 352 352 346 339 335 331 330 332 333 331 330 329 328 328 325 321 320 318 316 313 311 308 306 305 303 302 301 302 305 306 306 309 315 317 317 320 319 319 320 316 313 311 301
283 39 48 289 281 280 284 280 282 41 292 292 38 32 352 319 305 314 318 322 309 289 322 344 294 276 252 214 176 162 174 165 155 145 115 76 47 33 11 6 358 355 355 350 347 341 336 332 329 329 331 332 330 329 330 328 326 324 323 319 316 313 310 308 306 305 303 300 300 300 298 299 299 298 296 298 306 312 317 317 320 320 313 310 312 312
120 110 239 287 293 282 282 283 355 32 288 303 33 356 337 321 307 313 311 298 291 297 298 275 251 258 281 257 174 163 172 168 167 146 100 64 29 18 6 3 1 358 352 347 343 337 333 330 327 327 328 329 328 327 327 322 315 315 321 318 313 313 311 306 301 301 301 299 298 297 296 295 293 292 293 295 301 311 319 318 318 320 313 307 305 308
53 345 289 292 285 275 289 338 44 358 264 334 18 339 309 303 290 291 292 285 291 299 287 253 235 247 270 251 162 165 182 181 172 130 73 38 18 9 3 1 359 357 350 343 338 331 329 327 326 326 326 326 325 324 322 318 314 316 322 320 314 312 310 307 304 300 297 297 296 295 293 291 290 289 290 294 296 304 317 320 319 320 316 307 299 298
26 29 352 309 275 280 343 48 47 328 258 337 341 298 271 261 262 270 275 286 293 282 271 255 230 240 272 240 175 183 199 196 177 54 41 20 13 5 359 359 356 352 346 338 331 327 327 326 326 326 325 324 325 324 320 319 321 320 320 318 315 312 309 307 307 302 296 295 294 293 291 289 288 287 286 289 292 296 310 318 319 320 320 313 301 296
265 88 253 266 282 305 11 57 49 4 311 316 302 283 280 263 262 268 263 285 288 265 268 252 218 234 267 247 217 211 165 150 2 347 7 6 4 2 359 358 354 347 338 331 325 326 327 325 325 326 325 324 323 321 320 320 322 319 316 316 315 313 309 305 304 301 297 294 291 290 289 288 286 283 282 284 287 293 302 311 316 318 320 318 307 299
224 219 209 151 304 310 237 223 205 224 275 289 277 287 301 289 282 274 249 246 254 263 283 137 150 236 247 235 173 132 109 107 61 337 354 359 355 358 359 355 350 340 331 326 322 324 327 326 325 324 324 324 322 321 322 322 321 319 318 316 313 311 309 306 303 301 297 293 289 288 287 286 285 281 277 278 281 288 294 300 310 314 315 320 316 305
224 210 162 104 186 220 221 225 206 209 232 249 259 287 307 305 302 276 246 232 249 264 115 108 83 266 248 258 217 151 132 121 93 33 8 1 356 356 357 351 343 334 328 325 322 323 325 325 323 321 326 328 326 325 324 322 321 319 316 314 310 309 310 307 302 300 296 291 288 287 288 287 285 281 273 270 272 277 284 290 302 309 309 315 321 315
269 160 145 156 173 186 214 235 236 218 205 224 251 297 293 298 301 282 278 276 267 260 115 70 8 303 268 270 214 158 129 108 84 55 21 6 359 355 352 343 335 330 328 324 323 324 323 321 318 321 329 329 325 325 324 321 319 314 313 314 311 308 311 308 302 299 297 294 291 289 289 288 284 282 273 263 265 270 274 279 289 300 304 304 315 319
269 269 171 177 153 157 199 232 312 327 295 207 36 342 264 258 267 276 297 296 292 296 286 321 339 280 299 16 128 130 121 111 77 45 17 3 356 352 345 336 333 329 326 324 323 322 319 319 318 321 326 325 324 325 322 319 316 313 317 320 314 310 314 313 309 307 305 305 305 299 296 295 288 282 275 262 261 266 267 270 277 288 297 297 303 317
246 254 141 133 29 170 195 186 8 306 262 155 92 245 247 257 258 267 292 297 306 303 283 235 223 256 294 113 128 130 141 132 78 20 2 355 350 347 339 333 331 327 325 326 322 320 320 319 320 322 324 323 323 323 319 317 317 318 324 322 314 313 320 318 312 310 309 309 307 303 300 300 292 283 278 266 257 262 265 263 268 278 288 294 295 311
255 248 124 130 219 159 149 99 224 277 272 145 164 217 103 44 319 270 287 303 317 288 269 189 231 261 238 174 156 152 164 161 23 360 354 349 345 340 335 332 328 325 325 323 320 321 321 321 322 324 324 324 324 324 321 318 319 321 322 320 315 315 317 316 312 309 312 312 309 304 299 296 292 286 281 272 261 262 268 262 261 272 279 288 292 300
282 267 166 164 189 140 68 298 239 263 294 197 202 186 93 74 55 238 275 305 270 270 262 205 242 261 264 242 172 174 211 323 342 349 346 340 339 334 332 330 326 325 324 321 321 320 320 323 325 325 325 326 325 324 322 321 321 321 320 318 316 314 312 312 312 310 311 313 312 309 300 292 295 297 292 285 272 265 268 262 254 267 274 279 287 293
340 275 208 157 160 125 125 237 220 203 200 255 317 16 95 233 229 186 207 277 269 271 278 257 250 251 254 249 170 201 273 335 334 339 338 332 334 333 332 330 327 328 325 323 325 322 323 325 326 329 330 328 324 320 321 323 321 319 320 318 314 312 310 308 308 308 307 308 310 309 305 301 302 303 301 298 289 274 269 264 255 262 272 275 280 287
149 251 242 42 33 111 163 220 216 198 164 123 351 255 198 237 246 235 225 265 263 273 290 282 273 258 247 220 153 249 309 336 329 333 332 328 332 332 332 329 328 329 325 325 327 325 327 326 327 331 330 327 324 321 321 322 320 320 322 322 316 312 311 309 306 307 305 305 307 307 308 309 307 302 300 300 297 286 275 269 263 261 267 272 274 279
173 229 234 39 44 172 195 209 217 221 184 176 206 214 198 179 218 258 258 188 233 266 278 283 282 269 155 121 270 293 327 338 330 331 326 326 331 330 330 330 327 326 325 326 326 323 325 327 327 328 325 322 323 323 322 321 323 325 324 322 319 314 313 311 308 307 305 304 305 305 306 308 306 301 298 300 302 298 284 272 268 266 267 271 272 275
178 221 233 220 209 212 214 100 358 315 255 204 209 205 209 207 197 239 246 189 163 246 245 263 277 270 155 134 299 306 336 336 330 328 326 328 328 326 329 328 325 325 326 326 324 322 324 326 326 326 323 321 321 322 323 323 326 329 326 323 321 316 313 311 309 307 306 304 302 303 305 306 306 303 301 305 307 306 298 285 276 273 271 270 270 271
35 294 242 244 233 204 168 48 18 326 305 268 243 221 228 218 190 211 239 218 183 238 235 246 268 272 136 164 269 253 283 324 329 329 330 327 324 325 325 324 323 323 322 321 321 323 324 325 324 323 322 324 325 325 325 325 327 329 328 324 321 317 313 311 309 306 305 304 301 301 303 303 304 305 306 308 306 305 306 303 293 281 273 269 267 266
47 114 220 252 259 145 129 138 212 237 232 257 246 222 225 221 200 214 241 284 282 241 230 242 256 264 106 154 213 216 279 316 325 332 334 325 322 325 322 321 323 323 320 317 319 324 324 323 322 321 321 324 327 327 325 326 327 327 326 324 320 317 314 311 308 307 304 303 301 300 300 300 300 302 303 304 304 304 307 309 306 297 283 273 265 263
179 178 170 227 256 233 192 204 209 191 196 227 229 204 200 202 196 225 259 270 265 236 223 238 254 264 270 167 200 230 288 315 324 333 334 324 322 324 322 322 322 320 319 318 319 323 324 323 321 321 321 323 326 328 328 330 329 324 322 322 320 317 315 311 308 306 304 302 301 300 299 298 298 298 299 301 302 302 303 303 304 303 298 287 271 261
201 212 188 197 227 233 228 231 218 190 190 214 216 199 196 197 190 182 204 221 235 239 228 233 252 268 269 231 237 263 294 312 320 327 326 321 322 322 320 321 321 320 318 316 319 324 324 321 318 317 319 323 327 328 329 331 329 323 320 319 318 316 314 312 309 306 304 302 301 300 298 297 297 296 298 300 300 300 300 300 299 300 301 297 284 267
230 246 231 228 235 242 260 298 127 163 191 209 210 203 201 202 196 190 209 224 231 256 250 241 251 268 273 269 269 280 298 306 313 321 319 319 322 320 319 320 319 318 315 315 320 322 320 318 317 320 324 327 327 325 327 330 328 323 319 317 316 315 313 312 310 306 304 301 299 297 296 296 296 296 296 297 296 297 296 297 298 297 296 297 294 280
227 245 235 238 249 259 281 300 165 179 221 230 225 219 213 208 199 200 220 223 212 247 257 248 250 263 271 273 274 287 302 306 314 319 315 320 322 319 318 319 318 316 315 318 321 320 318 316 317 322 324 325 327 327 329 331 328 323 318 315 315 314 311 310 310 307 304 302 299 296 295 295 295 295 295 294 293 292 292 292 293 293 292 292 291 286
243 253 231 235 254 260 267 269 236 225 248 244 237 236 228 217 207 210 223 224 211 231 253 264 267 268 273 275 280 295 304 306 314 314 313 320 321 317 317 317 316 314 314 320 322 320 316 314 314 317 318 321 326 328 329 329 328 324 319 315 313 312 311 309 307 306 305 302 299 298 297 296 295 294 293 292 290 288 289 289 288 289 290 288 284 282
242 259 227 236 261 262 252 257 263 263 267 262 251 245 238 228 224 224 227 225 225 237 252 265 270 270 272 276 282 293 301 306 312 310 313 317 316 316 316 315 313 313 316 319 320 318 316 312 311 314 317 322 325 324 325 327 327 323 319 316 313 311 310 309 306 304 303 301 299 299 298 297 296 295 292 290 288 286 285 286 285 285 285 283 278 275
233 210 133 229 267 265 245 245 260 266 269 268 260 249 241 237 238 237 233 227 229 242 251 257 263 267 267 272 280 290 301 311 310 309 314 316 314 314 313 312 313 315 317 317 316 316 315 312 312 314 318 322 323 321 321 324 325 321 317 314 312 310 308 307 305 302 300 299 298 298 298 297 295 295 292 288 286 283 282 282 281 280 280 279 277 273
221 210 92 99 265 270 249 238 254 271 278 272 263 249 236 234 237 237 232 224 224 235 246 250 254 259 263 272 285 295 300 304 307 311 315 311 310 312 310 310 314 316 317 316 315 315 314 312 313 316 318 320 321 321 320 321 323 320 315 312 311 310 307 304 303 301 298 297 297 297 297 296 294 294 293 290 285 280 280 279 277 277 277 275 274 272
191 196 148 162 250 293 23 181 271 301 290 274 255 229 225 229 233 237 236 227 223 226 237 245 246 252 269 286 292 292 294 300 308 312 309 305 306 307 306 308 313 316 316 313 312 313 312 312 312 315 318 319 318 319 319 319 320 317 313 310 309 308 307 304 303 302 299 298 298 296 296 295 294 293 292 290 286 279 276 276 274 274 274 272 271 269
183 178 168 182 208 327 106 100 357 279 264 273 207 198 213 222 228 235 238 230 223 223 231 243 252 262 274 285 287 290 296 303 311 309 299 297 298 299 305 311 314 315 315 312 312 314 313 312 313 314 317 318 316 316 317 317 317 315 313 311 309 307 306 305 305 303 301 299 298 297 296 295 293 292 290 290 289 281 273 271 272 273 271 270 270 265
177 175 171 192 211 220 113 115 272 259 253 326 28 195 207 216 225 237 246 239 229 230 237 245 257 265 273 282 288 294 300 306 314 305 291 288 292 302 309 312 314 315 314 313 313 314 315 314 314 316 317 318 317 317 317 318 318 316 312 310 308 306 306 304 303 302 301 299 298 297 297 295 293 292 291 291 291 287 277 269 268 270 270 269 268 262
170 177 174 183 202 208 171 195 223 268 301 303 279 212 189 205 215 230 252 244 229 231 239 246 258 264 272 283 289 297 306 313 312 290 280 284 310 326 315 311 314 314 312 312 312 313 314 314 314 315 316 316 316 316 317 319 319 315 310 308 308 307 308 306 303 302 302 301 299 298 297 295 293 291 291 289 289 288 283 274 268 269 270 269 267 262
171 175 174 191 206 201 216 223 241 292 293 266 234 213 206 208 205 222 258 250 219 227 241 247 254 260 267 276 288 306 313 312 303 282 281 327 354 334 316 309 310 309 306 308 309 308 310 312 313 315 316 315 315 315 315 316 318 317 311 308 308 307 308 307 303 302 302 300 299 297 295 294 292 289 289 287 284 284 283 278 272 270 269 266 264 260
188 191 179 198 224 194 204 241 256 270 271 256 219 204 197 187 166 170 292 273 219 225 241 242 240 247 261 272 287 311 314 304 296 292 328 359 346 328 316 309 308 307 307 309 310 312 315 316 317 317 317 316 315 316 316 316 318 317 311 307 309 310 309 309 306 305 303 300 298 297 295 293 290 286 285 284 281 279 279 276 271 269 266 262 262 261
190 207 193 213 240 213 199 234 241 242 254 252 164 145 125 114 106 89 312 280 222 211 218 211 211 230 255 269 277 295 303 296 293 304 334 342 333 325 318 315 315 315 314 315 316 318 318 319 319 318 318 316 315 317 319 316 315 315 311 310 312 312 310 309 309 308 305 301 298 296 295 292 289 286 282 279 277 275 275 273 270 267 263 260 264 267
180 196 198 216 230 220 216 235 244 248 258 210 126 119 116 113 108 116 275 278 146 160 175 176 198 231 243 249 248 244 258 277 293 311 327 328 325 324 321 320 321 321 320 321 322 323 322 321 322 320 318 317 317 319 320 317 316 316 314 311 311 311 311 311 310 309 306 303 300 298 295 291 287 285 281 277 274 273 273 272 268 264 261 262 266 265
188 194 204 216 223 221 224 236 254 262 240 186 147 130 126 116 121 196 242 202 132 154 168 178 206 226 218 216 226 237 251 273 293 307 316 320 321 322 321 321 321 319 319 319 321 323 322 320 320 317 313 313 315 317 320 319 317 315 314 313 312 315 315 313 311 309 307 305 302 298 294 291 286 282 279 276 272 270 271 270 265 259 259 264 264 258
181 193 213 217 216 219 225 237 264 273 224 178 164 145 134 139 208 225 206 126 153 177 177 186 207 214 205 210 224 251 269 284 293 299 308 314 316 317 318 320 321 320 320 320 321 323 322 318 318 314 311 312 314 316 320 320 314 312 316 317 316 316 315 313 311 312 310 307 303 298 294 293 289 283 278 275 272 269 268 265 260 256 258 263 265 261
171 177 207 209 200 208 221 225 250 269 194 163 156 146 157 195 228 224 153 140 164 176 178 193 205 200 200 215 236 262 278 288 292 296 304 308 311 313 313 318 320 319 320 321 322 326 325 320 317 314 311 312 314 315 318 318 314 314 318 318 317 318 317 314 312 312 310 306 302 297 295 297 296 292 284 276 271 268 265 261 258 258 260 263 267 269
183 176 194 199 181 177 204 211 216 221 149 154 153 161 200 216 221 194 175 178 171 168 177 203 209 184 182 210 250 271 280 285 288 296 302 305 308 309 309 315 318 316 317 319 321 325 325 320 316 314 311 312 314 317 320 321 318 316 318 319 320 321 319 316 314 312 309 305 300 300 306 309 308 302 293 281 269 265 265 264 263 264 263 262 263 264
196 182 178 196 189 195 219 224 192 105 149 170 177 186 206 214 208 159 168 197 193 172 173 198 204 170 154 177 242 266 272 276 284 294 300 302 306 306 307 313 315 315 316 317 319 323 324 319 316 313 310 311 315 319 322 323 321 318 320 323 324 321 319 318 316 313 310 306 304 308 314 316 313 308 302 292 277 268 268 267 265 265 264 261 259 258
182 166 154 207 202 228 254 253 219 204 191 187 199 210 201 209 189 141 163 213 206 163 159 177 183 158 141 153 202 254 264 274 288 294 297 299 300 305 310 312 314 316 317 318 321 324 324 320 316 312 309 311 315 319 322 326 326 322 322 324 325 323 322 319 316 313 311 309 310 314 319 319 318 318 315 306 292 280 274 267 259 260 264 263 260 259
169 159 191 214 198 214 242 220 199 216 220 200 200 202 182 207 208 158 182 212 172 147 150 147 140 137 141 157 199 245 263 280 291 292 298 303 302 310 315 312 315 319 319 320 323 324 324 321 318 316 313 312 316 321 325 328 328 324 322 323 325 326 324 320 317 315 312 310 313 319 324 324 324 324 322 319 313 302 288 273 259 254 258 260 260 260
168 163 188 218 217 220 241 242 215 220 218 207 210 211 196 196 197 180 172 153 125 128 134 128 128 140 154 175 208 238 259 280 285 288 299 304 304 312 316 313 316 318 317 321 323 323 323 320 316 316 313 310 315 321 324 326 328 327 326 327 329 328 325 323 321 317 312 311 318 325 329 329 327 326 326 325 322 316 305 289 273 262 259 257 255 252
148 172 178 195 220 235 252 257 254 242 210 206 216 224 219 195 174 164 151 135 130 137 140 141 153 163 169 182 199 223 252 266 271 283 295 300 304 311 315 315 316 315 316 321 325 324 322 318 315 315 312 310 315 320 322 325 329 330 331 332 333 332 329 325 322 319 316 320 327 331 333 333 330 328 326 324 322 320 314 305 293 278 267 263 259 252
149 190 184 179 213 231 234 237 240 235 217 217 216 218 216 181 149 151 157 160 168 168 160 159 163 161 163 175 181 199 239 255 264 281 291 297 305 312 316 317 316 314 316 321 324 323 320 317 315 314 312 312 316 319 321 325 329 332 335 337 337 335 330 325 323 323 325 329 333 337 338 336 333 331 328 324 322 321 318 316 312 300 280 268 264 258
182 198 195 197 212 220 226 233 235 226 228 235 214 194 184 150 144 163 179 182 181 173 165 165 166 164 168 174 172 190 227 250 270 292 298 298 306 314 316 316 316 316 318 322 324 323 321 319 318 316 316 317 319 320 323 326 330 335 339 339 340 340 335 329 326 327 329 332 336 339 340 338 335 332 328 325 324 322 319 320 323 324 317 294 271 262